Regional Weather Roundup
Issued by NWS Sterling, VA

Home | Current Version | Previous Version | Text Only | Print | Product List | Glossary On
Versions: 1 2 3 4 5 6 7 8 9 10 11 12 13 14 15 16 17 18 19 20 21 22 23 24 25 26 27 28 29 30 31 32 33 34 35 36 37 38 39 40 41 42 43 44 45 46 47 48 49 50
000
ASUS41 KLWX 171710
RWRLWX

REGIONAL WEATHER ROUNDUP
NATIONAL WEATHER SERVICE BALTIMORE MD/WASHINGTON DC
100 PM EDT WED SEP 17 2014

Note: "FAIR" indicates few or no clouds below 12,000 feet
with no significant weather and/or obstructions to visibility.
 TC=TEMPERATURE CELSIUS

 * =Non NWS site. Station does not report precipitation (e.g. rain,
    snow, etc.), thunder, or fog.

DCZ001-MDZ009-015-VAZ040>042-051-053>054-171800-
WASHINGTON METRO

CITY           SKY/WX    TMP DP  RH WIND       PRES   REMARKS
WASHINGTON NAT PTSUNNY   74  48  39 CALM      30.03F
DULLES         PTSUNNY   69  49  48 CALM      30.03F
ANDREWS AFB    PTSUNNY   73  52  47 VRB5      30.03F
QUANTICO       MOSUNNY   74  53  48 N8        30.04F
COLLEGE PARK*  MOSUNNY   72  50  46 CALM      30.03F
LEESBURG*      MOSUNNY   73  52  46 CALM      30.04F
MANASSAS*      CLOUDY    70  54  56 CALM      30.04
GAITHERSBURG*  MOSUNNY   70  52  52 SE7       30.07F

$$

MDZ006>007-011-014-171800-
BALTIMORE METRO

CITY           SKY/WX    TMP DP  RH WIND       PRES   REMARKS
BWI AIRPORT    MOSUNNY   73  49  42 VRB7      30.03F
MD SCIENCE CTR   N/A     73  47  39 MISG      30.03F
MARTIN STATE   MOSUNNY   73  52  46 SE8       30.05F
ANNAPOLIS      SUNNY     70  52  52 SE8       30.03F
FORT MEADE*    CLOUDY    68  50  52 CALM      30.05F

$$

MDZ012-015-019>023-171800-
MARYLAND EASTERN SHORE

CITY           SKY/WX    TMP DP  RH WIND       PRES   REMARKS
OCEAN CITY     SUNNY     73  51  46 E10       30.02F
SALISBURY      MOSUNNY   76  48  37 N8        30.02F
BAY BRIDGE AP*   N/A     72  48  43 NW6       30.04F
CAMBRIDGE*     MOSUNNY   73  46  38 W3        30.02F
EASTON*        MOSUNNY   73  48  40 E7        30.06F

$$

MDZ017>025-171800-
SOUTHERN MARYLAND

CITY           SKY/WX    TMP DP  RH WIND       PRES   REMARKS
PATUXENT RIVER MOSUNNY   72  52  49 E9        30.02F
ST INIGOES     SUNNY     73  51  46 VRB3      30.02F
LEONARDTOWN*   MOSUNNY   72  50  46 E6        30.04F

$$

MDZ003>005-171800-
NORTH CENTRAL MARYLAND

CITY           SKY/WX    TMP DP  RH WIND       PRES   REMARKS
FREDERICK*     PTSUNNY   73  48  40 CALM      30.06F
HAGERSTOWN APT CLOUDY    69  45  41 S6        30.03F
WESTMINSTER*   PTSUNNY   66  48  52 SW5       30.04F

$$

MDZ501>502-171800-
WESTERN MARYLAND

CITY           SKY/WX    TMP DP  RH WIND       PRES   REMARKS
OAKLAND*       PTSUNNY   59  45  58 S7        30.06F
CUMBERLAND*    SUNNY     73  45  35 S7        30.07F

$$

VAZ025>031-171800-
SHENANDOAH VALLEY

CITY           SKY/WX    TMP DP  RH WIND       PRES   REMARKS
WINCHESTER*    PTSUNNY   70  46  43 S7        30.03F
STAUNTON*      NOT AVBL

$$

WVZ021-048>050-054>055-171800-
EASTERN WEST VIRGINIA PANHANDLE

CITY           SKY/WX    TMP DP  RH WIND       PRES   REMARKS
MARTINSBURG    CLOUDY    70  45  40 CALM      30.04F
PETERSBURG*    SUNNY     69  47  44 NE6       30.03F

$$

VAZ036>039-050-171800-
CENTRAL FOOTHILLS

CITY           SKY/WX    TMP DP  RH WIND       PRES   REMARKS
CHARLOTTESVILL SUNNY     71  49  45 E5        30.03F
ORANGE*        SUNNY     72  50  46 NE5       30.04F

$$

VAZ055>057-171800-
NORTH AND CENTRAL PIEDMONT

CITY           SKY/WX    TMP DP  RH WIND       PRES   REMARKS
FREDERICKSBRG* MOSUNNY   76  52  43 E5        30.02F
STAFFORD*      PTSUNNY   73  53  48 S5        30.07F

$$

NCZ024-NYZ072-PAZ021-071-VAZ022-071-171800-
OTHER REGIONAL OBSERVATIONS

CITY           SKY/WX    TMP DP  RH WIND       PRES   REMARKS
NEW YORK CITY  SUNNY     70  40  33 W7        30.05F
PHILADELPHIA   MOSUNNY   72  48  42 SE5       30.03F
PITTSBURGH     PTSUNNY   66  48  52 N7        30.02F
ROANOKE        PTSUNNY   70  53  54 VRB5      30.05F
RICHMOND       PTSUNNY   75  53  46 VRB5      30.01F
RALEIGH        PTSUNNY   74  62  66 E7        29.98F

$$

ANZ530>537-171800-
MARINE OBSERVATIONS

STATION/POSITION TIME  TEMP    WIND        PRES
                       AIR SEA DIR/SP/G
                 (UTC) (F)     (DEG/KT/KT) (MB)
THOMAS PT LIGHT  1700   70 74  140/  1/  2 1018.0F
BALT KEY BRIDGE  1700   67     120/  5/  7 1017.0F
COVE POINT       1700   69      30/  6/  7 1016.8F
LEWISETTA        1700   70 73   70/  5/  7 1016.4F
SOLOMONS ISLAND  1700      76                N/A
PINEY POINT      1700          150/  7/  8   N/A

$$




USA.gov is the U.S. government's official web portal to all federal, state and local government web resources and services.